Simultaneous Nadir Overpasses (SNOs) Predictions

Prediction of SNOs between NOAA-20 and NOAA-19 Satellite Orbit:

Table of predicted SNOs for the next 14.0 days since TLE Epoch: 5/18/2018
Index Date (NOAA-20) Time (NOAA-20) Lat,Lon (NOAA-20) SZA (NOAA-20 ) Date (NOAA-19) Time (NOAA-19) Lat,Lon (NOAA-19) SZA (NOAA-19 ) Distance(km) Time Diff (sec)
1 05/21/2018 15:03:14 -80.56, 88.60 116.83 05/21/2018 15:02:02 -80.56, 88.71 116.81 2.06 72
2 05/21/2018 15:53:59 80.56,-104.08 63.16 05/21/2018 15:52:58 80.56,-103.99 63.18 1.65 61
3 05/21/2018 16:44:44 -80.57, 63.18 116.84 05/21/2018 16:44:03 -80.56, 63.28 116.83 1.78 41
4 05/21/2018 17:35:29 80.57,-129.50 63.16 05/21/2018 17:34:59 80.57,-129.43 63.16 1.31 30
5 05/21/2018 18:26:14 -80.57, 37.76 116.85 05/21/2018 18:26:04 -80.57, 37.84 116.85 1.50 10
6 05/21/2018 19:16:59 80.57,-154.92 63.15 05/21/2018 19:17:00 80.57,-154.87 63.14 0.97 1
7 05/21/2018 20:07:44 -80.57, 12.34 116.85 05/21/2018 20:08:05 -80.57, 12.40 116.87 1.24 21
8 05/21/2018 20:58:29 80.57, 179.66 63.15 05/21/2018 20:59:01 80.57, 179.69 63.12 0.66 32
9 05/21/2018 21:49:14 -80.58, -13.08 116.86 05/21/2018 21:50:06 -80.57, -13.03 116.89 0.98 52




NCC Satellite Simultaneous Nadir Overpasses (SNOs) Prediction Service
